Location: Asheville, NC
(35.6000°N, 82.5500°W)
Time: 20:22:48

XW-2C - Pass Details

Date: 06 January 2018
Orbit: 511 x 531 km, 97.5° (Epoch: 21 March)

Event Time Altitude Azimuth Distance (km) Brightness Sun altitude
Rises 06:07:09 0° 20° (NNE) 2,661 ? -18.5°
Reaches altitude 10° 06:09:23 10° 29° (NNE) 1,764 ? -18.0°
Maximum altitude 06:12:57 37° 98° (E) 813 ? -17.3°
Drops below altitude 10° 06:16:27 10° 167° (SSE) 1,740 ? -16.7°
Sets 06:18:38 0° 176° (S) 2,619 ? -16.2°
